Weather History for Al Udeid, Qatar

Change the Weather History Date:

Sunday, August 10, 2014

  Actual Average Record
Temperature  
Mean Temperature 92 °F -  
Max Temperature 101 °F - - ()
Min Temperature 84 °F - - ()
Cooling Degree Days 28    
Growing Degree Days 42 (Base 50)    
Moisture  
Dew Point 81 °F    
Average Humidity 75    
Maximum Humidity 94    
Minimum Humidity 47    
Precipitation  
Precipitation 0.00 in - - ()
Sea Level Pressure  
Sea Level Pressure 29.53 in    
Wind  
Wind Speed 8 mph ()    
Max Wind Speed 13 mph    
Max Gust Speed 18 mph    
Visibility 5.7 miles    
Events      
T = Trace of Precipitation, MM = Missing Value Source: Averaged Metar Reports

Daily Weather History Graph

Daily Weather History Graph

Search for Another Location

Airport:

Trip Planner

Search our weather history database for the weather conditions in past years. The results will help you decide how hot, cold, wet, or windy it might be!

Date:

Astronomy

Aug. 10, 2014 Rise Set
Actual Time 5:06 AM AST 6:13 PM AST
Civil Twilight 4:41 AM AST 6:37 PM AST
Nautical Twilight 4:13 AM AST 7:06 PM AST
Astronomical Twilight 3:43 AM AST 7:35 PM AST
Moon 5:49 PM AST (8/10) 4:27 AM AST (8/10)
Length of Visible Light 13h 56m
Length of Day
13h 07m
Full, 100% of the Moon is Illuminated
Aug 10
Full
Aug 10
Full
Aug 17
Last Quarter
Aug 25
New
Sep 2
First Quarter

Hourly Weather History & Observations

Time (AST) Temp. Heat Index Dew Point Humidity Pressure Visibility Wind Dir Wind Speed Gust Speed Precip Events Conditions
12:58 AM 86.9 °F 101.5 °F 79.2 °F 78% 29.48 in 6.2 mi NW 5.8 mph - N/A   Clear
1:58 AM 85.8 °F 100.8 °F 80.1 °F 83% 29.47 in 6.2 mi NW 6.9 mph - N/A   Clear
2:58 AM 85.6 °F 103.4 °F 82.0 °F 89% 29.47 in 6.2 mi NNW 5.8 mph - N/A   Clear
3:58 AM 85.1 °F 101.4 °F 81.5 °F 89% 29.48 in 6.2 mi NW 10.4 mph - N/A   Clear
4:04 AM 84.2 °F 100.6 °F 82.4 °F 94% 29.48 in 6.2 mi NNW 8.1 mph - N/A   Partly Cloudy
4:24 AM 84.2 °F 100.6 °F 82.4 °F 94% 29.49 in 6.2 mi NNW 10.4 mph - N/A   Mostly Cloudy
4:31 AM 84.2 °F 100.6 °F 82.4 °F 94% 29.49 in 6.2 mi NNW 10.4 mph - N/A   Clear
4:38 AM 86.0 °F 104.7 °F 82.4 °F 89% 29.49 in 6.2 mi NNW 11.5 mph - N/A   Mostly Cloudy
4:53 AM 86.0 °F 104.7 °F 82.4 °F 89% 29.49 in 6.2 mi NNW 10.4 mph - N/A   Overcast
4:58 AM 85.3 °F 103.1 °F 82.2 °F 91% 29.50 in 6.2 mi North 10.4 mph - N/A   Mostly Cloudy
5:08 AM 86.0 °F 104.7 °F 82.4 °F 89% 29.50 in 5.6 mi NNW 9.2 mph - N/A   Mostly Cloudy
5:17 AM 86.0 °F 104.7 °F 82.4 °F 89% 29.50 in 2.5 mi North 10.4 mph - N/A   Mostly Cloudy
5:18 AM 86.0 °F 104.7 °F 82.4 °F 89% 29.50 in 2.5 mi North 10.4 mph - N/A   Scattered Clouds
5:58 AM 86.0 °F 104.7 °F 82.4 °F 89% 29.83 in 3.1 mi NNW 8.1 mph - N/A   Partly Cloudy
6:58 AM 87.8 °F 108.9 °F 82.8 °F 85% 29.55 in 3.1 mi North 8.1 mph - N/A   Partly Cloudy
7:58 AM 90.3 °F 112.1 °F 82.4 °F 77% 29.55 in 5.0 mi North 8.1 mph - N/A   Partly Cloudy
8:58 AM 93.2 °F 114.4 °F 81.1 °F 68% 29.55 in 6.2 mi NE 8.1 mph - N/A   Partly Cloudy
9:58 AM 96.4 °F 115.6 °F 79.5 °F 58% 29.57 in 6.2 mi NNE 6.9 mph - N/A   Clear
10:58 AM 98.6 °F 117.2 °F 78.6 °F 53% 29.55 in 6.2 mi Variable 6.9 mph - N/A   Clear
11:58 AM 101.1 °F 118.4 °F 77.5 °F 47% 29.55 in 6.2 mi East 8.1 mph - N/A   Clear
12:58 PM 100.4 °F 119.5 °F 78.8 °F 50% 29.53 in 6.2 mi East 10.4 mph 18.4 mph N/A   Clear
1:58 PM 100.0 °F 120.5 °F 79.3 °F 52% 29.52 in 6.2 mi ENE 12.7 mph - N/A   Clear
2:58 PM 100.0 °F 116.4 °F 77.4 °F 48% 29.52 in 6.2 mi Variable 4.6 mph - N/A   Clear
3:58 PM 100.4 °F 121.6 °F 79.7 °F 52% 29.50 in 6.2 mi ENE 10.4 mph - N/A   Clear
4:58 PM 98.6 °F 120.3 °F 80.2 °F 56% 29.52 in 6.2 mi NE 11.5 mph - N/A   Clear
5:58 PM 95.5 °F 120.5 °F 82.8 °F 66% 29.52 in 6.2 mi NE 9.2 mph - N/A   Clear
6:58 PM 94.1 °F 119.4 °F 82.8 °F 70% 29.55 in 6.2 mi NE 9.2 mph - N/A   Clear
7:58 PM 93.4 °F 114.1 °F 81.1 °F 67% 29.57 in 6.2 mi NNE 8.1 mph - N/A   Clear
8:58 PM 92.3 °F 114.0 °F 81.7 °F 71% 29.57 in 6.2 mi North 6.9 mph - N/A   Clear
9:58 PM 91.2 °F 113.7 °F 82.4 °F 75% 29.57 in 6.2 mi North 9.2 mph - N/A   Clear
10:58 PM 91.4 °F 114.3 °F 82.4 °F 75% 29.57 in 6.2 mi North 10.4 mph - N/A   Clear
11:58 PM 89.8 °F 111.7 °F 82.6 °F 79% 29.55 in 6.2 mi NNE 9.2 mph - N/A   Clear